SCP
0 0 0 0 0 0 0 0 0 0 0 0 0 0 0 0 0 0 0 0 0 0 0 0 0 0 0 0 0 0 0 0 0 0 0 0 0 0 0 0 0 0 0
0 0 0 0 0 0 0 0 0 0 0 0 0 0 0 0 0 0 0 0 0 0 0 0 0 0 0 0 0 0 0 0 0 0 0 0 0 0 0 0 0 0 0
0 0 0 0 0 0 0 0 0 0 0 0 0 0 0 0 0 0 0 0 0 0 0 0 0 0 0 0 0 0 0 0 0 0 0 0 0 0 0 0 0 0 0
0 0 0 0 0 0 0 0 0 0 0 0 0 0 0 0 0 0 0 0 0 0 0 0 0 0 0 0 0 0 0 0 0 0 0 0 0 0 0 0 0 0 0
0 0 0 0 0 0 0 0 0 0 0 0 0 0 0 0 0 0 0 0 0 0 0 0 0 0 0 0 0 0 0 0 0 0 0 0 0 0 0 0 0 0 0
0 0 0 0 0 0 0 0 0 0 0 0 0 0 0 0 0 0 0 0 0 0 0 0 0 0 0 0 0 0 0 0 0 0 0 0 0 0 0 0 0 0 0
0 0 0 0 0 0 0 0 0 0 0 0 0 0 0 0 0 0 0 0 0 0 0 0 0 0 0 0 0 0 0 0 0 0 0 0 0 0 0 0 0 0 0
0 0 0 0 0 0 0 0 0 0 0 0 0 0 0 0 0 0 0 0 0 0 0 0 0 0 0 0 0 0 0 0 0 0 0 0 0 0 0 0 0 0 0
0 0 0 0 0 0 0 0 0 0 0 0 0 0 0 0 0 0 0 0 0 0 0 0 0 0 0 0 0 0 0 0 0 0 0 0 0 0 0 0 0 0 0
0 0 0 0 0 0 0 0 0 0 0 0 0 0 0 0 0 0 0 0 0 0 0 0 0 0 0 0 0 0 0 0 0 0 0 0 0 0 0 0 0 0 0
0 0 0 0 0 0 0 0 0 0 0 0 0 0 0 0 0 0 0 0 0 0 0 0 0 0 0 0 0 0 0 0 0 0 0 0 0 0 0 0 0 0 0
0 0 0 0 0 0 0 0 0 0 0 0 0 0 0 0 0 0 0 0 0 0 0 0 0 0 0 0 0 0 0 0 0 0 0 0 0 0 0 0 0 0 0
0 0 0 0 0 0 0 0 0 0 0 0 0 0 0 0 0 0 0 0 0 0 0 0 0 0 0 0 0 0 0 0 0 0 0 0 0 0 0 0 0 0 0
0 0 0 0 0 0 0 0 0 0 0 0 0 0 0 0 0 0 0 0 0 0 0 0 0 0 0 0 0 0 0 0 0 0 0 0 0 0 0 0 0 0 0
0 0 0 0 0 0 0 0 0 0 0 0 0 0 0 0 0 0 0 0 0 0 0 0 0 0 0 0 0 0 0 0 0 0 0 0 0 0 0 0 0 0 0
0 0 0 0 0 0 0 0 0 0 0 0 0 0 0 0 0 0 0 0 0 0 0 0 0 0 0 0 0 0 0 0 0 0 0 0 0 0 0 0 0 0 0
0 0 0 0 0 0 0 0 0 0 0 0 0 0 0 0 0 0 0 0 0 0 0 0 0 0 0 0 0 0 0 0 0 0 0 0 0 0 0 0 0 0 0
0 0 0 0 0 0 0 0 0 0 0 0 0 0 0 0 0 0 0 0 0 0 0 0 0 0 0 0 0 0 0 0 0 0 0 0 0 0 0 0 0 0 0
0 0 0 0 0 0 0 0 0 0 0 0 0 0 0 0 0 0 0 0 0 0 0 0 0 0 0 0 0 0 0 0 0 0 0 0 0 0 0 0 0 0 0
0 0 0 0 0 0 0 0 0 0 0 0 0 0 0 0 0 0 0 0 0 0 0 0 0 0 0 0 0 0 0 0 0 0 0 0 0 0 0 0 0 0 0
0 0 0 0 0 0 0 0 0 0 0 0 0 0 0 0 0 0 0 0 0 0 0 0 0 0 0 0 0 0 0 0 0 0 0 0 0 0 0 0 0 0 0
0 0 0 0 0 0 0 0 0 0 0 0 0 0 0 0 0 0 0 0 0 0 0 0 0 0 0 0 0 0 0 0 0 0 0 0 0 0 0 0 0 0 0
0 0 0 0 0 0 0 0 0 0 0 0 0 0 0 0 0 0 0 0 0 0 0 0 0 0 0 0 0 0 0 0 0 0 0 0 0 0 0 0 0 0 0
0 0 0 0 0 0 0 0 0 0 0 0 0 0 0 0 0 0 0 0 0 0 0 0 0 0 0 0 0 0 0 0 0 0 0 0 0 0 0 0 0 0 0
0 0 0 0 0 0 0 0 0 0 0 0 0 0 0 0 0 0 0 0 0 0 0 0 0 0 0 0 0 0 0 0 0 0 0 0 0 0 0 0 0 0 0
0 0 0 0 0 0 0 0 0 0 0 0 0 0 0 0 0 0 0 -0 0 0 0 0 0 0 0 0 0 0 0 0 0 0 0 0 0 0 0 0 0 0 0
Wind_Speed
5 4 3 3 2 2 1 1 1 1 1 1 1 1 1 1 1 2 2 3 3 3 3 3 3 3 2 2 2 2 1 2 2 2 1 1 0 1 1 1 1 0 1
5 5 3 2 2 2 2 1 0 0 1 1 2 1 1 1 1 2 2 3 4 4 3 3 3 3 3 2 2 2 2 2 3 2 1 1 1 1 0 1 1 1 1
5 5 4 2 2 2 2 1 1 0 0 1 1 2 1 1 1 1 2 2 3 3 4 4 3 3 3 2 2 2 2 1 2 2 2 1 1 0 0 1 1 1 1
5 4 4 4 3 2 2 1 0 0 0 1 1 1 1 1 1 1 2 2 2 2 2 3 3 4 4 4 3 3 3 2 2 2 1 1 1 0 1 0 1 1 2
5 5 5 5 4 2 2 1 1 0 0 1 1 1 1 1 1 1 2 2 2 2 2 2 3 3 3 3 3 3 4 3 2 2 2 1 1 1 1 1 1 1 1
5 5 5 5 4 3 2 1 1 0 0 0 1 1 1 0 1 1 1 2 2 2 2 2 2 3 3 3 3 3 3 4 4 3 2 2 3 2 1 1 1 1 2
5 5 5 5 5 4 3 2 1 0 0 0 0 1 1 1 1 1 1 1 2 1 1 1 1 2 2 3 2 2 1 2 3 4 3 3 3 3 2 2 2 2 3
5 5 5 5 5 4 3 2 2 1 0 0 1 0 1 1 1 2 2 2 2 2 1 2 2 2 2 3 3 2 1 1 2 2 2 3 2 2 3 3 3 2 1
5 5 5 5 5 4 3 3 2 1 1 1 1 1 1 1 1 2 1 1 2 2 1 1 1 1 2 3 3 3 1 0 1 0 0 0 0 1 1 1 1 1 2
5 5 5 5 4 4 3 3 2 2 2 2 2 2 1 1 2 2 2 1 2 1 1 1 1 1 1 2 2 3 2 1 1 1 1 1 1 0 1 1 2 2 1
5 5 5 5 4 3 3 3 2 2 2 2 2 2 2 2 2 2 2 1 2 1 1 1 1 2 1 1 1 2 3 2 1 1 1 0 0 0 1 1 0 1 2
5 4 5 5 4 4 3 3 3 2 2 2 2 2 2 2 3 3 3 3 2 1 1 1 1 2 2 2 1 2 2 1 1 1 1 0 0 0 1 1 1 1 1
4 4 4 4 4 4 3 3 2 2 2 2 2 1 2 2 2 3 3 3 3 2 1 2 2 3 3 2 3 3 1 1 1 1 1 1 1 1 1 1 1 1 1
4 4 4 3 4 3 3 3 2 2 1 2 1 1 1 2 1 1 1 1 2 2 2 2 3 4 3 3 2 2 1 1 0 1 1 1 0 0 0 1 1 1 1
3 3 3 3 3 3 3 2 3 2 2 2 1 1 1 1 2 3 2 1 0 1 1 1 1 1 1 1 1 2 1 1 1 1 0 0 0 0 1 1 1 1 1
3 3 3 3 2 2 2 3 5 5 5 5 4 3 2 3 3 3 2 2 2 1 1 1 1 1 1 1 1 1 1 1 1 1 0 0 1 1 1 1 1 1 1
3 3 3 3 3 2 2 2 3 4 5 6 6 6 4 4 3 3 2 2 2 2 1 1 1 0 0 0 0 1 1 1 1 1 1 1 1 1 1 2 2 2 2
3 4 4 3 2 2 2 2 2 2 3 3 4 6 6 5 4 3 3 2 2 2 1 0 0 0 0 0 0 1 1 1 1 1 1 1 1 2 2 2 2 2 2
3 3 2 2 2 2 2 2 2 2 2 2 3 3 5 5 5 4 4 2 1 1 1 1 1 1 1 1 1 1 1 1 1 1 2 2 2 2 2 3 3 4 3
3 6 5 2 2 2 2 2 2 2 2 2 2 2 3 3 2 2 2 2 1 1 1 1 1 1 1 1 1 1 1 2 2 2 2 2 2 2 3 3 3 3 3
3 4 6 3 2 2 2 2 2 2 2 2 2 3 4 2 1 2 2 2 1 1 1 1 1 2 1 1 1 2 2 2 2 2 2 3 3 3 3 3 3 3 3
3 3 2 2 2 2 2 2 2 2 2 2 2 3 4 2 1 1 2 2 2 2 2 2 2 2 2 2 2 2 3 3 3 3 3 3 3 3 3 3 3 3 3
2 3 3 2 2 3 3 2 2 2 2 2 2 2 2 2 2 2 2 2 2 2 2 2 2 2 2 2 3 3 3 4 4 4 4 4 4 3 3 4 4 4 4
2 2 2 2 2 2 2 2 2 2 2 2 2 2 2 2 2 2 2 2 2 2 2 2 2 3 4 4 3 3 4 4 4 4 5 5 4 4 4 4 4 5 5
1 2 2 2 2 2 2 2 2 2 2 2 2 2 2 2 2 2 2 2 3 3 3 3 3 3 4 5 5 5 7 8 7 5 4 4 5 5 5 5 5 5 5
2 2 2 2 2 2 2 2 2 2 2 2 2 2 2 2 2 3 3 3 3 3 4 3 4 5 6 5 6 8 9 9 9 8 5 4 5 5 5 5 6 5 5
Wind_Direction
332 318 317 313 318 319 298 267 238 217 206 184 180 176 173 190 184 176 188 177 176 185 184 178 184 172 170 174 166 171 175 160 204 248 228 278 253 266 313 318 312 274 284
330 322 322 326 331 340 333 327 11 139 181 185 166 156 157 177 185 185 185 180 176 181 183 176 182 169 173 175 171 181 191 181 178 209 236 242 236 240 280 297 323 325 294
336 331 326 332 333 330 325 327 351 11 24 165 149 151 156 171 179 187 184 182 181 182 179 177 180 167 179 179 176 182 185 184 169 176 217 235 252 311 26 329 334 319 319
338 334 332 329 318 312 319 311 292 339 247 190 162 160 161 145 149 169 167 160 164 172 176 180 182 179 186 183 183 183 175 171 168 171 191 218 244 269 142 227 316 320 308
337 337 332 329 321 326 337 308 277 201 276 221 168 150 140 148 145 151 158 161 157 160 169 175 176 173 184 183 182 181 175 176 176 180 196 206 223 210 219 211 240 289 295
334 336 337 336 333 333 333 326 345 7 331 296 175 158 151 163 125 124 156 156 149 158 169 173 163 162 162 167 168 173 178 182 188 197 213 211 224 230 222 222 226 254 278
338 340 341 342 339 335 336 353 7 348 35 51 113 149 161 157 125 108 87 108 134 152 156 159 166 161 164 161 152 147 161 190 200 201 202 224 227 223 212 228 238 247 250
340 340 340 342 337 335 345 355 347 346 37 49 44 89 109 91 89 86 69 83 103 117 130 146 168 171 172 159 148 145 147 194 217 208 200 220 228 225 214 220 221 239 266
339 335 334 335 332 337 342 343 348 6 22 31 65 75 68 50 56 74 87 119 105 96 103 122 136 145 154 152 144 142 132 24 19 101 59 283 308 290 238 157 184 214 265
327 325 327 329 331 335 335 340 357 14 19 23 30 45 53 44 31 45 58 106 108 98 82 83 95 121 147 145 158 158 166 200 154 88 30 7 350 353 348 222 210 219 247
322 327 330 332 333 336 348 352 7 21 34 36 30 31 37 28 29 40 44 69 106 104 99 84 86 88 84 85 155 181 182 184 165 156 160 153 26 24 339 329 258 218 231
328 329 331 337 339 345 359 0 8 26 41 37 31 24 26 16 23 37 40 38 44 81 77 59 80 84 82 62 49 110 122 117 128 128 136 175 239 289 298 300 305 286 260
332 331 333 338 344 348 355 359 3 12 20 17 18 9 11 8 10 17 25 34 33 40 72 76 57 59 57 52 63 70 69 95 124 148 196 240 259 263 283 316 343 342 332
326 327 332 338 346 354 353 353 354 352 353 351 353 343 345 347 352 351 6 26 48 53 58 71 62 56 47 44 45 41 41 61 135 183 208 240 295 322 316 310 302 310 314
325 326 333 336 338 342 347 350 344 338 329 325 308 304 304 314 324 336 340 349 59 109 89 59 57 62 55 51 38 34 35 39 33 24 141 199 242 289 308 309 287 297 283
329 332 330 328 331 336 338 347 354 352 354 353 349 344 331 331 334 337 347 18 35 79 73 94 87 70 60 42 40 24 23 23 12 1 334 252 245 253 276 294 294 275 274
323 322 324 327 326 326 327 334 339 351 2 4 1 359 355 348 351 2 9 39 55 69 70 96 106 125 113 12 353 349 333 330 329 304 298 305 268 251 255 263 268 271 272
323 321 322 315 315 315 316 318 320 331 342 349 352 358 2 2 7 21 35 46 45 41 42 54 22 300 292 283 287 302 302 304 299 288 271 266 273 261 253 254 255 256 265
322 316 310 309 314 316 321 323 322 327 331 335 341 348 356 2 13 26 31 40 49 15 2 346 326 317 313 304 296 291 281 270 271 273 269 264 260 260 258 254 255 265 266
321 328 329 325 324 326 322 320 322 324 328 327 329 332 337 353 8 11 16 19 19 355 337 320 310 302 296 291 286 281 277 270 267 261 262 262 262 257 260 260 257 255 254
318 322 331 332 326 322 318 319 318 314 314 318 323 327 343 1 1 357 355 355 348 332 319 308 298 293 290 287 275 270 267 267 263 259 257 256 255 258 261 264 264 259 259
315 317 320 316 317 315 317 316 313 314 315 316 323 327 340 1 355 347 337 333 334 324 311 299 291 289 284 274 267 261 260 261 261 258 255 255 255 257 257 257 263 261 257
306 309 319 322 322 325 335 328 318 313 310 311 317 329 336 343 340 334 331 331 328 321 314 302 290 291 291 284 274 261 255 258 259 254 252 255 256 256 254 252 254 260 260
305 306 313 317 321 322 320 318 315 313 313 313 317 321 325 328 324 321 321 322 321 316 312 302 289 286 289 290 283 275 266 262 256 250 244 245 250 254 254 255 255 256 256
326 320 316 313 313 313 313 313 312 312 316 319 319 321 321 319 316 315 318 318 315 310 310 306 296 291 291 290 287 281 280 279 272 258 245 242 244 245 247 249 250 253 252
329 322 318 312 305 303 302 303 305 310 312 314 315 313 311 311 312 314 314 314 314 309 306 302 299 298 295 291 288 289 289 287 280 272 261 246 244 247 247 249 249 250 250